星链-6355 (STARLINK-6355 )

导读 | 星芒AI

STARLINK-6355 是 SpaceX Starlink 卫星互联网项目中的一颗低轨卫星,属于第63批发射的星链卫星之一。该卫星运行在约550公里高度的近地轨道,旨在为全球用户提供高速、低延迟的互联网服务。Starlink 项目通过部署大量卫星,构建覆盖全球的宽带网络,特别服务于偏远和网络基础设施薄弱的地区。STARLINK-6355 采用先进推进系统和激光通信技术,有助于提升星座整体性能与连接稳定性。

基本信息
目录编号:
57356
目录名称:
STARLINK-6355
国际标识:
2023-099AE
轨道中心:
EARTH
卫星名称:
星链-6355
卫星全名:
星链-6355 (STARLINK-6355 )
卫星状态:
在轨 (已飞行889 天)
发射日期:
2023-07-16 UTC
国别 :
美国 (US)
星等 :
--
轨道信息
数据来源 国际轨道数据 AOE轨道数据
星历时间 2025-12-21T21:55:43+0800
7小时前
查看轨道信息
2025-12-16T21:00:00+0800
5天前
查看轨道信息
半长轴 6937.185km 6937.181km
偏心率 0.0001095 0.0000336
轨道倾角 43.005° 43.005°
近地点辐角 265.189° 225.506°
升交点赤经 300.648° 328.030°
平近点角 94.883° 208.365°
近地点 558.288km 558.812km
远地点 559.808km 559.28km
周期 95.837分钟 95.837分钟
每日圈数 15.025463 15.025478
详细信息
固有亮度:
5
最大亮度:
2.5
卫星平台:
Starlink v1.5
覆盖范围:
全球
运营商:
太空探索技术公司
运营商所在国:
美国
制造商(研发单位):
太空探索技术公司
制造商所在国:
美国
使用方式:
暂无
卫星简介
星链(Starlink)计划是由太空探索技术公司(SpaceX)提出的一个巨型低轨卫星互联网星座项目,计划在2019年至2024年间在太空搭建由约1.2万颗卫星组成的“星链”网络,其中1584颗将部署在地球上空550千米处的近地轨道,并从2020年开始工作。该卫星仍在工作。
2D轨道图
3D轨道图
轨道高度分析图
轨道倾角分析图
轨道综合分析图
查看轨道综合分析图